SCP
0 0 0 0 0 0 0 0 0 0 0 0 0 0 0 0 0 0 0 0 0 0
0 0 0 0 0 0 0 0 0 0 0 0 0 0 0 0 0 0 0 0 0 0
0 0 0 0 0 0 0 0 0 0 0 0 0 0 0 0 0 0 0 0 0 0
0 0 0 0 0 0 0 0 0 0 0 0 0 0 0 0 0 0 0 0 0 0
0 0 0 0 0 0 0 0 0 0 0 0 0 0 0 0 0 0 0 0 0 0
0 0 0 0 0 0 0 0 0 0 0 0 0 0 0 0 0 0 0 0 0 0
0 0 0 0 0 0 0 0 0 0 0 0 0 0 0 0 0 0 0 0 0 0
0 0 0 0 0 0 0 0 0 0 0 0 0 0 0 0 0 0 0 0 0 0
0 0 0 0 0 0 0 0 0 0 0 0 0 0 0 0 0 0 0 0 0 0
0 0 0 0 0 0 0 0 0 0 0 0 0 0 0 0 0 0 0 0 0 0
0 0 0 0 0 0 0 0 0 0 0 0 0 0 0 0 0 0 0 0 0 0
0 0 0 0 0 0 0 0 0 0 0 0 0 0 0 0 0 0 0 0 0 0
0 0 0 0 0 0 0 0 0 0 0 0 0 0 0 0 0 0 0 0 0 0
0 0 0 0 0 0 0 0 0 0 0 0 0 0 0 0 0 0 0 0 0 0
Wind_Speed_500mb
103 97 89 86 83 77 72 62 54 47 41 34 31 29 29 28 28 28 27 26 27 30
101 99 91 83 78 74 68 60 54 53 47 41 36 34 33 31 31 31 30 28 29 32
91 91 87 80 78 75 70 64 61 59 52 48 42 38 36 35 35 34 32 30 30 32
86 89 86 78 74 75 74 72 69 63 57 53 46 43 40 38 38 36 34 32 32 32
78 81 80 78 76 75 76 75 71 66 62 57 52 48 45 41 40 38 36 33 33 32
70 76 78 78 75 74 76 76 74 71 67 61 57 52 46 43 43 41 37 35 34 33
62 71 74 72 71 72 74 75 77 74 69 63 58 54 49 48 46 43 40 37 34 34
48 56 64 67 69 71 72 74 74 72 71 65 63 60 54 51 48 44 41 38 36 33
31 40 49 56 62 65 68 71 73 76 73 70 69 62 55 52 50 46 44 40 36 33
34 41 47 53 59 63 65 68 73 77 78 76 71 63 59 54 52 49 45 40 38 34
30 38 46 55 63 68 72 70 72 76 79 77 74 65 61 57 53 52 47 43 40 34
27 39 46 53 60 66 73 77 77 78 78 79 76 68 64 61 58 56 49 44 40 34
30 33 41 49 53 56 67 77 83 83 78 76 75 69 66 65 61 57 51 46 41 35
37 35 36 42 48 52 57 68 79 81 80 77 76 70 69 68 64 59 52 47 42 36
Wind_Direction_500mb
221 219 219 220 219 219 223 224 224 225 229 237 247 255 258 260 264 265 270 282 295 307
220 219 220 222 222 224 225 225 226 227 232 238 245 252 255 258 260 261 266 278 291 304
220 220 222 224 224 224 225 225 227 231 234 239 243 249 254 255 255 257 263 274 286 298
220 220 223 225 227 228 228 229 231 234 237 240 243 248 251 252 251 254 259 269 280 295
222 222 224 227 228 227 228 231 234 236 238 239 241 245 249 249 251 252 257 265 277 292
223 223 225 227 228 228 230 232 234 236 237 238 241 244 247 247 247 249 253 261 274 289
224 225 227 230 230 231 233 235 236 237 239 239 241 243 244 244 244 244 249 257 270 283
229 231 232 232 232 233 235 238 240 240 240 239 240 241 242 242 242 241 246 254 265 280
237 238 237 236 236 236 237 239 239 239 239 241 241 242 242 240 239 239 243 251 262 277
229 237 242 243 243 241 240 242 241 241 240 241 241 240 240 238 238 237 241 248 259 274
254 245 241 244 247 246 244 242 244 243 242 241 241 238 238 236 235 236 239 245 256 270
284 263 254 250 246 247 248 245 245 245 242 240 239 235 234 232 233 233 236 242 252 265
320 297 277 265 259 253 245 247 248 247 244 241 238 234 233 232 231 231 233 239 247 258
340 323 303 283 269 258 252 249 249 248 245 239 234 231 231 230 230 231 232 236 244 254
Wind_Speed_850mb
103 97 89 86 83 77 72 62 54 47 41 34 31 29 29 28 28 28 27 26 27 30
101 99 91 83 78 74 68 60 54 53 47 41 36 34 33 31 31 31 30 28 29 32
91 91 87 80 78 75 70 64 61 59 52 48 42 38 36 35 35 34 32 30 30 32
86 89 86 78 74 75 74 72 69 63 57 53 46 43 40 38 38 36 34 32 32 32
78 81 80 78 76 75 76 75 71 66 62 57 52 48 45 41 40 38 36 33 33 32
70 76 78 78 75 74 76 76 74 71 67 61 57 52 46 43 43 41 37 35 34 33
62 71 74 72 71 72 74 75 77 74 69 63 58 54 49 48 46 43 40 37 34 34
48 56 64 67 69 71 72 74 74 72 71 65 63 60 54 51 48 44 41 38 36 33
31 40 49 56 62 65 68 71 73 76 73 70 69 62 55 52 50 46 44 40 36 33
34 41 47 53 59 63 65 68 73 77 78 76 71 63 59 54 52 49 45 40 38 34
30 38 46 55 63 68 72 70 72 76 79 77 74 65 61 57 53 52 47 43 40 34
27 39 46 53 60 66 73 77 77 78 78 79 76 68 64 61 58 56 49 44 40 34
30 33 41 49 53 56 67 77 83 83 78 76 75 69 66 65 61 57 51 46 41 35
37 35 36 42 48 52 57 68 79 81 80 77 76 70 69 68 64 59 52 47 42 36
Wind_Direction_850mb
221 219 219 220 219 219 223 224 224 225 229 237 247 255 258 260 264 265 270 282 295 307
220 219 220 222 222 224 225 225 226 227 232 238 245 252 255 258 260 261 266 278 291 304
220 220 222 224 224 224 225 225 227 231 234 239 243 249 254 255 255 257 263 274 286 298
220 220 223 225 227 228 228 229 231 234 237 240 243 248 251 252 251 254 259 269 280 295
222 222 224 227 228 227 228 231 234 236 238 239 241 245 249 249 251 252 257 265 277 292
223 223 225 227 228 228 230 232 234 236 237 238 241 244 247 247 247 249 253 261 274 289
224 225 227 230 230 231 233 235 236 237 239 239 241 243 244 244 244 244 249 257 270 283
229 231 232 232 232 233 235 238 240 240 240 239 240 241 242 242 242 241 246 254 265 280
237 238 237 236 236 236 237 239 239 239 239 241 241 242 242 240 239 239 243 251 262 277
229 237 242 243 243 241 240 242 241 241 240 241 241 240 240 238 238 237 241 248 259 274
254 245 241 244 247 246 244 242 244 243 242 241 241 238 238 236 235 236 239 245 256 270
284 263 254 250 246 247 248 245 245 245 242 240 239 235 234 232 233 233 236 242 252 265
320 297 277 265 259 253 245 247 248 247 244 241 238 234 233 232 231 231 233 239 247 258
340 323 303 283 269 258 252 249 249 248 245 239 234 231 231 230 230 231 232 236 244 254